993  
ASUS41 KOKX 230310  
RWROKX  
 
REGIONAL WEATHER ROUNDUP  
NATIONAL WEATHER SERVICE NEW YORK NY  
1000 PM EST THU FEB 22 2024  
 
NOTE: "FAIR" INDICATES FEW OR NO CLOUDS BELOW 12,000 FEET WITH NO  
SIGNIFICANT WEATHER AND/OR S TO VISIBILITY
.  
 
NYZ071-072-176-178-NJZ106-104-230400-  
NEW YORK CITY METRO AREA  
 
CITY SKY/WX TMP DP RH WIND PRES REMARKS
 
CENTRAL PARK CLOUDY 42 36 79 S7 29.76F  
WORLD TRD CTR NOT AVBL  
BRONX LEHMAN C NOT AVBL  
LAGUARDIA ARPT CLOUDY 41 35 79 S10 29.75F  
QUEENS COLLEGE NOT AVBL  
KENNEDY INTL LGT RAIN 40 38 93 SE7 29.77F  
BREEZY POINT N/A 41 N/A N/A S7 N/A  
BROOKLYN COLL NOT AVBL  
STATEN ISLAND NOT AVBL  
NEWARK/LIBERTY CLOUDY 42 37 82 SE6 29.74F  
TETERBORO CLOUDY 40 35 83 SE3 29.74F  

 
 
NYZ177-179-078>081-230400-  
LONG ISLAND NEW YORK  
 
CITY SKY/WX TMP DP RH WIND PRES REMARKS
 
JONES BEACH N/A 41 N/A N/A S5 N/A  
WANTAGH NOT AVBL  
HEMPSTEAD NOT AVBL  
MATINECOCK PT N/A 39 N/A N/A SE1 N/A  
FARMINGDALE CLOUDY 40 37 89 SE7 29.78F  
MACARTHUR/ISP CLOUDY 39 37 92 S6 29.78F WCI 35  
STONY BROOK NOT AVBL  
SHIRLEY LGT RAIN 40 35 83 S6 29.80F  
MT SINAI HARB N/A 39 N/A N/A S1 N/A  
WESTHAMPTON LGT RAIN 40 33 76 S6 29.81F  
EAST HAMPTON CLOUDY 38 33 81 S5 29.81F WCI 35  
SOUTHOLD NOT AVBL  
MONTAUK N/A 41 35 79 S5 29.81F  

 
 
NYZ052-065-067-230400-  
HUDSON VALLEY  
 
CITY SKY/WX TMP DP RH WIND PRES REMARKS
 
WHITE PLAINS CLOUDY 37 35 92 SE5 29.74F WCI 33  
LARCHMONT HARB N/A N/A N/A N/A SE7 N/A  
CROTON ON HUDS N/A 37 N/A N/A E3 N/A  
SOMERS NOT AVBL  
BREWSTER NOT AVBL  
NEWBURGH LGT RAIN 36 36 100 CALM 29.73F FOG  
MONTGOMERY LGT RAIN 34 33 96 NE3 29.72F FOG  
OTISVILLE NOT AVBL  
WARWICK NOT AVBL  
SUFFERN NOT AVBL  
POUGHKEEPSIE CLOUDY 36 35 96 CALM 29.74F  
ALBANY LGT RAIN 39 32 75 S12G24 29.71F WCI 32  

 
 
NJZ001-105-106-008-010-013-015-019>022-104-230400-  
NEW JERSEY  
 
CITY SKY/WX TMP DP RH WIND PRES REMARKS
 
NEWARK/LIBERTY CLOUDY 42 37 82 SE6 29.74F  
TETERBORO CLOUDY 40 35 83 SE3 29.74F  
CALDWELL CLOUDY 41 33 73 S5 29.74F  
SOMERVILLE LGT RAIN 39 37 92 CALM 29.71F  
LINDEN CLOUDY 40 36 84 SE3 29.74F  
PERTH AMBOY N/A 39 N/A N/A SE7 N/A WCI 34  
SUSSEX CLOUDY 36 34 92 CALM 29.70F FOG  
ANDOVER N/A 37 34 89 CALM 29.70F  
TRENTON LGT RAIN 39 37 92 S7 29.72F WCI 34  
MILLVILLE CLOUDY 42 39 89 VRB5 29.70F  
ATLANTIC CITY CLOUDY 43 39 86 S12 29.72F  
WRIGHTSTOWN LGT RAIN 41 37 87 S3 29.71F  
TOMS RIVER LGT RAIN 41 40 96 S6 29.74F  
BELMAR LGT RAIN 40 39 97 S6 29.74F  

 
 
PAZ047>061-062-071-230400-  
EASTERN PENNSYLVANIA  
 
CITY SKY/WX TMP DP RH WIND PRES REMARKS
 
PHILADELPHIA LGT RAIN 40 39 97 E3 29.71F  
ALLENTOWN LGT RAIN 39 34 82 E3 29.70F  
SCRANTON CLOUDY 36 33 89 E5 29.65F FOG WCI 32  

 
 
CTZ002-004>006-009-010-012-RIZ004-006-007-MAZ004-011-015-230400-  
SOUTHERN NEW ENGLAND  
 
IN CT  
 
CITY SKY/WX TMP DP RH WIND PRES REMARKS
 
BRADLEY INTL FLURRIES 36 33 89 S9 29.76F WCI 29  
HARTFORD MIX PCPN 36 33 89 SE7 29.77F WCI 30  
DANBURY LGT RAIN 36 33 89 CALM 29.76F FOG  
WTRBURY/OXFORD LGT SNOW 34 32 93 S7 29.75F FOG WCI 28  
NORWALK HARBOR N/A N/A N/A N/A E2 N/A  
BRIDGEPORT CLOUDY 39 35 86 CALM 29.80F  
MERIDEN CLOUDY 36 33 89 SE3 29.78F  
NEW HAVEN CLOUDY 40 37 89 CALM 29.79F  
CHESTER CLOUDY 37 36 93 S6 29.79F WCI 33  
GROTON CLOUDY 39 36 89 S8 29.80F WCI 33  
WILLIMANTIC CLOUDY 35 32 88 S3 29.79F  
 
IN RI  
 
CITY SKY/WX TMP DP RH WIND PRES REMARKS
 
PROVIDENCE CLOUDY 35 32 88 S6 29.80F WCI 30  
BLOCK ISLAND CLOUDY 38 34 85 SW12 29.82F WCI 30  
WESTERLY CLOUDY 39 34 82 S9 29.80F WCI 33  
 
IN MA  
 
CITY SKY/WX TMP DP RH WIND PRES REMARKS
 
BOSTON LGT RAIN 36 31 82 SW13 29.77F WCI 27  
WORCESTER LGT RAIN 34 28 80 SW12 29.72 WCI 25  
WESTFIELD MIX PCPN 35 32 88 S9 29.75F WCI 28  
PROVINCETOWN CLOUDY 36 33 89 SW18 29.81F WCI 26  
NANTUCKET CLOUDY 37 33 85 SW15 29.84F WCI 28  

 
 
ANZ330-335-338-340-345-350-353-355-230400-  
COASTAL MARINE OBSERVATIONS  
 
 
STATION/POSITION TIME SKY/WX TEMP WIND PRES VSBY WAVE
 
AIR SEA DIR/SP/G HT/PER  
(UTC) (F) (DEG/KT/KT) (MB) (MI) (FT/S)  
NY HARB ENTRANCE 0250 41 1006.4 6/12  
20 S FIRE ISLAND NOT AVBL  
GREAT SOUTH BAY NOT AVBL  
23 SSW MONTAUK P NOT AVBL  
15 E BARNEGAT LI 0226 42 N/A 7/13  
HUDSON CANYON NOT AVBL  
KINGS POINT 0224 40 40 160/ 9/ 10 1008.7  
EXECUTION ROCKS 0245 40 170/ 6 1007.5  
WESTERN LI SOUND NOT AVBL  
CENTRAL LI SOUND NOT AVBL  
ROBBINS REEF 0230 41 160/ 10/ 11 1007.9  

 
 
>>>>>>>>>>>>>>>>>>>>>>>>>>>> KEY <<<<<<<<<<<<<<<<<<<<<<<<<<<  
> <  
> SKY/WX - SKY CONDITION/PRESENT WEATHER <  
> TMP - TEMPERATURE IN FAHRENHEIT <  
> DP - DEW POINT IN FAHRENHEIT <  
> RH - RELATIVE HUMIDITY IN PERCENT <  
> WIND - DIRECTION (FROM) AND SPEED IN MPH <  
> PRES - MEAN SEA LEVEL PRESSURE (INCHES OF HG) <  
> WCI - WIND CHILL INDEX <  
> VSB - VISIBILITY IN MILES <  
> HX - HEAT INDEX <  
> TC - TEMPERATURE IN CELSIUS <  
> VRB - VARIABLE WIND DIRECTION <  
> <  
>>>>>>>>>>>>>>>>>>>>>>>>>>>> KEY <<<<<<<<<<<<<<<<<<<<<<<<<<<  
 
 
CLICK HERE TO GO TO PREVIOUS BULLETINS.

The Nexlab NY Page
The Nexlab NJ Page
The Nexlab CT Page Main Text Page